Regional Weather Roundup
Issued by NWS

Home | Current Version | Previous Version | Graphics & Text | Print | Product List | Glossary On
Versions: 1 2 3 4 5 6 7 8 9 10 11 12 13 14 15 16 17 18 19 20 21 22 23 24 25 26 27
000
ASUS45 KPSR 181910
RWRAZ

ARIZONA HOURLY REGIONAL WEATHER ROUNDUP
NATIONAL WEATHER SERVICE PHOENIX AZ
1200 PM MST SAT FEB 18 2017

NOTE: FAIR INDICATES FEW OR NO CLOUDS BELOW 12,000 FEET WITH NO
SIGNIFICANT WEATHER AND/OR OBSTRUCTIONS TO VISIBILITY.

AZZ001>003-036-182000-
NORTHWEST ARIZONA

CITY           SKY/WX    TMP DP  RH WIND       PRES   REMARKS
BULLHEAD CITY  CLOUDY    59  54  82 SW6       29.54F
KINGMAN        CLOUDY    53  35  50 SE13G24   29.57F
$$

AZZ004>008-015-016-018-182000-
NORTH CENTRAL ARIZONA

CITY           SKY/WX    TMP DP  RH WIND       PRES   REMARKS
GRAND CANYON   CLOUDY    41  34  76 VRB7      29.71F
WILLIAMS       CLOUDY    39  36  87 S17G24    29.69F WCI  30
PRESCOTT       LGT RAIN  44  41  89 SE13      29.67F
FLAGSTAFF      LGT RAIN  39  35  86 S8        29.70F WCI  33
PAYSON         DRIZZLE   46  41  81 VRB7G13   29.73S
$$

AZZ009>014-017-182000-
NORTHEAST ARIZONA

CITY           SKY/WX    TMP DP  RH WIND       PRES   REMARKS
WINSLOW        PTSUNNY   60  32  34 SE22G31   29.68F
SAINT JOHNS    MOSUNNY   55  28  35 S12       29.73F
WINDOW ROCK    PTSUNNY   51  32  48 MISG      29.78F
SHOW LOW       MOSUNNY   48  28  46 S25G38    29.74F
$$

AZZ023-182000-
GREATER PHOENIX AREA

CITY           SKY/WX    TMP DP  RH WIND       PRES   REMARKS
PHOENIX        CLOUDY    60  52  74 E20G26    29.59F
BUCKEYE        CLOUDY    61  52  72 E14G24    29.57R
GLENDALE       CLOUDY    63  54  72 NE12      29.60F
LUKE AFB       CLOUDY    62  51  67 E15       29.57F
DEER VALLEY    CLOUDY    58  50  75 E10       29.60F
SCOTTSDALE     LGT RAIN  58  50  75 SE9       29.65F
MESA-FALCON    LGT RAIN N/A N/A N/A E12       29.61F
MESA-GATEWAY   CLOUDY    57  52  82 E13       29.63F
CHANDLER       CLOUDY    61  52  72 NE16      29.61F
$$

AZZ027-028-182000-
SOUTHWEST MARICOPA COUNTY AND PINAL COUNTY

CITY           SKY/WX    TMP DP  RH WIND       PRES   REMARKS
CASA GRANDE    NOT AVBL
GILA BEND      CLOUDY    61  52  72 SW15      29.56R
$$

AZZ503-504-507>509-182000-
SOUTHEAST ARIZONA

CITY           SKY/WX    TMP DP  RH WIND       PRES   REMARKS
TUCSON         PTSUNNY   64  39  39 SE22G33   29.63F
DAVIS-MONTHAN  CLOUDY    63  40  42 SE21G28   29.62F
RYAN FIELD     CLOUDY    64  36  34 E21G37    29.61F
NOGALES        PTSUNNY   57  38  48 SE26G38   29.64F
SIERRA VISTA   PTSUNNY   52  39  63 S28G43    29.69S
DOUGLAS        CLOUDY    58  35  42 S16G24    29.73F
SAFFORD        CLOUDY    61  38  42 SE14G23   29.70F
$$

AZZ020-021-025-026-031-182000-
SOUTHWEST ARIZONA

CITY           SKY/WX    TMP DP  RH WIND       PRES   REMARKS
YUMA           LGT RAIN  56  53  90 SW13      29.56F
$$

CAZ031-033-041-043-047-048-061-182000-
SOUTHERN CALIFORNIA

CITY           SKY/WX    TMP DP  RH WIND       PRES   REMARKS
DOWNTOWN L.A.  CLOUDY    58  51  78 E3        29.58F
L.A. AIRPORT   CLOUDY    54  54 100 E8        29.58F FOG
SAN DIEGO      PTSUNNY   59  45  59 S9        29.61R
BURBANK        PTSUNNY   52  50  93 S3        29.57F
ONTARIO        PTSUNNY   55  48  77 CALM      29.56F
RIVERSIDE      PTSUNNY   57  49  74 VRB5      29.56F
PALM SPRINGS   CLOUDY    58  53  84 SE5       29.58S
EL CENTRO NAS  CLOUDY    58  50  75 E3        29.57F
IMPERIAL       CLOUDY    57  52  83 E5        29.55S
BLYTHE         LGT RAIN  57  55  93 SW8       29.55F
NEEDLES        CLOUDY    62  52  69 VRB6      29.53F
$$

NVZ020-UTZ003-182000-
SOUTHERN NEVADA-UTAH

CITY           SKY/WX    TMP DP  RH WIND       PRES   REMARKS
LAS VEGAS      CLOUDY    52  49  89 NE8       29.55F
SALT LAKE CITY CLOUDY    54  34  46 S14       29.65S
$$

NMZ009-TXZ055-182000-
NEW MEXICO-WEST TEXAS

CITY           SKY/WX    TMP DP  RH WIND       PRES   REMARKS
ALBUQUERQUE    CLOUDY    52  34  50 W9        29.83F
EL PASO        CLOUDY    60  34  37 E7        29.80F
$$


........................KEY........................
SKY/WX - SKY CONDITION/WEATHER
TMP    - TEMPERATURE IN FAHRENHEIT
DP     - DEW POINT IN FAHRENHEIT
RH     - RELATIVE HUMIDITY IN PERCENT
WIND   - DIRECTION AND SPEED IN MILES PER HOUR (MPH)
VRB    - VARIABLE WIND DIRECTION
PRES   - MEAN SEA LEVEL PRESSURE IN INCHES OF MERCURY
         F - FALLING PRESSURE   R - RISING PRESSURE
         S - STEADY PRESSURE
VSB    - VISIBILITY IN MILES
HX     - HEAT INDEX IN FAHRENHEIT
WCI    - WIND CHILL INDEX IN FAHRENHEIT
TC     - TEMPERATURE IN CELSIUS WHICH IS ALSO KNOWN AS
         TEMPERATURE IN CENTIGRADE
AFB    - AIR FORCE BASE
         LUKE AFB IS LUKE AIR FORCE BASE
         DAVIS-MONTHAN IS DAVIS-MONTHAN AIR FORCE BASE
NAS    - NAVAL AIR STATION
         EL CENTRO NAS IS EL CENTRO NAVAL AIR STATION
N/A    - NOT AVAILABLE





USA.gov is the U.S. government's official web portal to all federal, state and local government web resources and services.